Regional Weather Roundup
Issued by NWS

Home | Current Version | Previous Version | Graphics & Text | Print | Product List | Glossary On
Versions: 1 2 3 4 5 6 7 8 9 10 11 12 13 14 15 16 17 18 19 20 21 22 23 24 25 26 27 28 29 30 31 32 33 34 35 36 37 38 39 40 41 42 43 44 45 46 47 48 49 50
000
ASUS43 KLMK 230310
RWRKY
KENTUCKY REGIONAL WEATHER ROUNDUP
NATIONAL WEATHER SERVICE LOUISVILLE KY
1100 PM EDT FRI SEP 22 2017

NOTE "FAIR" INDICATES FEW OR NO CLOUDS BELOW 12,000 FEET
WITH NO SIGNIFICANT WEATHER AND/OR OBSTRUCTIONS TO VISIBILITY.

KYZ001>023-026-027-061>063-070>075-230400-
WESTERN AND SOUTH CENTRAL KENTUCKY

CITY           SKY/WX    TMP DP  RH WIND       PRES   REMARKS
PADUCAH        CLEAR     73  68  84 CALM      30.01R
HENDERSON      CLEAR     69  67  93 CALM      30.03S
OWENSBORO      CLEAR     75  70  83 CALM      30.03S
HOPKINSVILLE   NOT AVBL
BOWLING GREEN  CLEAR     74  70  87 CALM      30.04R
GLASGOW        CLEAR     69  69 100 CALM      30.05R
$$

KYZ024-025-028>034-038-045-046-053-230400-
NORTH CENTRAL KENTUCKY

CITY           SKY/WX    TMP DP  RH WIND       PRES   REMARKS
LOUISVILLE/SDF CLEAR     79  67  66 CALM      30.04S
LOUISVILLE/LOU CLEAR     73  70  90 CALM      30.05S
FORT KNOX      CLEAR     70  69  96 CALM      30.04S
$$

KYZ035>037-039>044-047>052-055>060-089>105-230400-
NORTHEAST KENTUCKY

CITY           SKY/WX    TMP DP  RH WIND       PRES   REMARKS
LEXINGTON      CLEAR     73  64  73 E5        30.08S
COVINGTON      CLEAR     74  68  81 CALM      30.07S
FRANKFORT      CLEAR     68  64  87 CALM      30.06S
$$

KYZ054-064>069-076>088-106>120-230400-
SOUTHEAST KENTUCKY

CITY           SKY/WX    TMP DP  RH WIND       PRES   REMARKS
JACKSON        PTCLDY    72  64  76 CALM      30.10S
LONDON         PTCLDY    70  65  84 N3        30.09R
SOMERSET       CLEAR     68  64  88 CALM      30.08S
MIDDLESBORO    MOCLDY    69  66  90 SW3       30.09S
MONTICELLO     PTCLDY    70  67  90 VRB3      30.09R
$$





USA.gov is the U.S. government's official web portal to all federal, state and local government web resources and services.